owner,sensor,date,latitude,longitude,vertical_datum,mass_concentration_of_oxygen_in_sea_water,qcFlag 
DISL,ioos:station:DISL:MBLA:1,2009-03-01T00:02:00Z,30.4367,-88.0117,3.009,9.9,1111122 
DISL,ioos:station:DISL:MBLA:1,2009-03-01T00:05:00Z,30.4367,-88.0117,2.498,10.19,1111122 
DISL,ioos:station:DISL:MBLA:1,2009-03-01T00:07:00Z,30.4367,-88.0117,1.881,10.46,1111122 
DISL,ioos:station:DISL:MBLA:1,2009-03-01T00:10:00Z,30.4367,-88.0117,1.589,10.45,1111122 
DISL,ioos:station:DISL:MBLA:1,2009-03-01T00:12:00Z,30.4367,-88.0117,1.056,10.41,1111122 
DISL,ioos:station:DISL:MBLA:1,2009-03-01T00:15:00Z,30.4367,-88.0117,0.549,10.39,1111122 
DISL,ioos:station:DISL:MBLA:1,2009-03-01T01:03:00Z,30.4367,-88.0117,3.052,9.02,1111122 
DISL,ioos:station:DISL:MBLA:1,2009-03-01T01:05:00Z,30.4367,-88.0117,2.616,10.2,1111122 
DISL,ioos:station:DISL:MBLA:1,2009-03-01T01:07:00Z,30.4367,-88.0117,2.009,10.24,1111122 
DISL,ioos:station:DISL:MBLA:1,2009-03-01T01:11:00Z,30.4367,-88.0117,1.379,10.3,1111122 
DISL,ioos:station:DISL:MBLA:1,2009-03-01T01:13:00Z,30.4367,-88.0117,1.028,10.33,1111122 
DISL,ioos:station:DISL:MBLA:1,2009-03-01T01:16:00Z,30.4367,-88.0117,0.446,10.35,1111122 
DISL,ioos:station:DISL:MBLA:1,2009-03-01T02:02:00Z,30.4367,-88.0117,2.883,9.5,1111122 
DISL,ioos:station:DISL:MBLA:1,2009-03-01T02:05:00Z,30.4367,-88.0117,2.535,9.85,1111122 
DISL,ioos:station:DISL:MBLA:1,2009-03-01T02:07:00Z,30.4367,-88.0117,2.011,9.87,1111122 
DISL,ioos:station:DISL:MBLA:1,2009-03-01T02:10:00Z,30.4367,-88.0117,1.539,9.92,1111122 
DISL,ioos:station:DISL:MBLA:1,2009-03-01T02:13:00Z,30.4367,-88.0117,0.959,9.93,1111122 
DISL,ioos:station:DISL:MBLA:1,2009-03-01T02:15:00Z,30.4367,-88.0117,0.487,9.93,1111122 
DISL,ioos:station:DISL:MBLA:1,2009-03-01T03:03:00Z,30.4367,-88.0117,2.979,9.5,1111122 
DISL,ioos:station:DISL:MBLA:1,2009-03-01T03:05:00Z,30.4367,-88.0117,2.47,9.48,1111122 
DISL,ioos:station:DISL:MBLA:1,2009-03-01T03:07:00Z,30.4367,-88.0117,2.172,9.45,1111122 
DISL,ioos:station:DISL:MBLA:1,2009-03-01T03:10:00Z,30.4367,-88.0117,1.227,9.43,1111122 
DISL,ioos:station:DISL:MBLA:1,2009-03-01T03:13:00Z,30.4367,-88.0117,1.083,9.42,1111122 
DISL,ioos:station:DISL:MBLA:1,2009-03-01T03:16:00Z,30.4367,-88.0117,0.642,9.38,1111122 
DISL,ioos:station:DISL:MBLA:1,2009-03-01T04:03:00Z,30.4367,-88.0117,2.928,8.98,1111122 
DISL,ioos:station:DISL:MBLA:1,2009-03-01T04:05:00Z,30.4367,-88.0117,2.404,8.94,1111122 
DISL,ioos:station:DISL:MBLA:1,2009-03-01T04:08:00Z,30.4367,-88.0117,2.125,8.96,1111122 
DISL,ioos:station:DISL:MBLA:1,2009-03-01T04:10:00Z,30.4367,-88.0117,1.549,8.97,1111122 
DISL,ioos:station:DISL:MBLA:1,2009-03-01T04:12:00Z,30.4367,-88.0117,1.035,8.99,1111122 
DISL,ioos:station:DISL:MBLA:1,2009-03-01T04:15:00Z,30.4367,-88.0117,0.528,8.98,1111122 
DISL,ioos:station:DISL:MBLA:1,2009-03-01T05:02:00Z,30.4367,-88.0117,2.946,8.86,1111122 
DISL,ioos:station:DISL:MBLA:1,2009-03-01T05:05:00Z,30.4367,-88.0117,2.5,8.91,1111122 
DISL,ioos:station:DISL:MBLA:1,2009-03-01T05:08:00Z,30.4367,-88.0117,2.007,8.9,1111122 
DISL,ioos:station:DISL:MBLA:1,2009-03-01T05:11:00Z,30.4367,-88.0117,1.582,8.91,1111122 
DISL,ioos:station:DISL:MBLA:1,2009-03-01T05:14:00Z,30.4367,-88.0117,0.974,8.93,1111122 
DISL,ioos:station:DISL:MBLA:1,2009-03-01T05:17:00Z,30.4367,-88.0117,0.547,8.93,1111122 
DISL,ioos:station:DISL:MBLA:1,2009-03-01T06:03:00Z,30.4367,-88.0117,3.074,8.52,1111122 
DISL,ioos:station:DISL:MBLA:1,2009-03-01T06:05:00Z,30.4367,-88.0117,2.434,8.65,1111122 
DISL,ioos:station:DISL:MBLA:1,2009-03-01T06:07:00Z,30.4367,-88.0117,1.891,8.75,1111122 
DISL,ioos:station:DISL:MBLA:1,2009-03-01T06:10:00Z,30.4367,-88.0117,1.327,8.82,1111122 
DISL,ioos:station:DISL:MBLA:1,2009-03-01T06:13:00Z,30.4367,-88.0117,0.685,8.86,1111122 
DISL,ioos:station:DISL:MBLA:1,2009-03-01T06:15:00Z,30.4367,-88.0117,0.486,8.86,1111122 
DISL,ioos:station:DISL:MBLA:1,2009-03-01T07:02:00Z,30.4367,-88.0117,2.906,8.78,1111122 
DISL,ioos:station:DISL:MBLA:1,2009-03-01T07:05:00Z,30.4367,-88.0117,2.535,8.79,1111122 
DISL,ioos:station:DISL:MBLA:1,2009-03-01T07:07:00Z,30.4367,-88.0117,2.078,8.82,1111122 
DISL,ioos:station:DISL:MBLA:1,2009-03-01T07:10:00Z,30.4367,-88.0117,1.468,8.84,1111122 
DISL,ioos:station:DISL:MBLA:1,2009-03-01T07:13:00Z,30.4367,-88.0117,1.034,8.85,1111122 
DISL,ioos:station:DISL:MBLA:1,2009-03-01T07:15:00Z,30.4367,-88.0117,0.765,8.87,1111122 
DISL,ioos:station:DISL:MBLA:1,2009-03-01T08:03:00Z,30.4367,-88.0117,2.978,8.79,1111122 
DISL,ioos:station:DISL:MBLA:1,2009-03-01T08:05:00Z,30.4367,-88.0117,2.554,8.83,1111122 
DISL,ioos:station:DISL:MBLA:1,2009-03-01T08:07:00Z,30.4367,-88.0117,2.058,8.93,1111122 
DISL,ioos:station:DISL:MBLA:1,2009-03-01T08:10:00Z,30.4367,-88.0117,1.508,8.96,1111122 
DISL,ioos:station:DISL:MBLA:1,2009-03-01T08:12:00Z,30.4367,-88.0117,1.05,8.96,1111122 
DISL,ioos:station:DISL:MBLA:1,2009-03-01T08:15:00Z,30.4367,-88.0117,0.572,8.98,1111122 
DISL,ioos:station:DISL:MBLA:1,2009-03-01T09:03:00Z,30.4367,-88.0117,2.994,8.97,1111122 
DISL,ioos:station:DISL:MBLA:1,2009-03-01T09:05:00Z,30.4367,-88.0117,2.571,8.96,1111122 
DISL,ioos:station:DISL:MBLA:1,2009-03-01T09:09:00Z,30.4367,-88.0117,1.853,8.99,1111122 
DISL,ioos:station:DISL:MBLA:1,2009-03-01T09:11:00Z,30.4367,-88.0117,1.377,9.0,1111122 
DISL,ioos:station:DISL:MBLA:1,2009-03-01T09:13:00Z,30.4367,-88.0117,0.907,9.0,1111122 
DISL,ioos:station:DISL:MBLA:1,2009-03-01T09:16:00Z,30.4367,-88.0117,0.391,9.0,1111122 
DISL,ioos:station:DISL:MBLA:1,2009-03-01T10:02:00Z,30.4367,-88.0117,2.946,9.02,1111122 
DISL,ioos:station:DISL:MBLA:1,2009-03-01T10:05:00Z,30.4367,-88.0117,2.557,8.99,1111122 
DISL,ioos:station:DISL:MBLA:1,2009-03-01T10:07:00Z,30.4367,-88.0117,2.082,9.0,1111122 
DISL,ioos:station:DISL:MBLA:1,2009-03-01T10:10:00Z,30.4367,-88.0117,1.715,9.01,1111122 
DISL,ioos:station:DISL:MBLA:1,2009-03-01T10:13:00Z,30.4367,-88.0117,1.198,9.0,1111122 
DISL,ioos:station:DISL:MBLA:1,2009-03-01T10:16:00Z,30.4367,-88.0117,0.487,9.02,1111122 
DISL,ioos:station:DISL:MBLA:1,2009-03-01T11:03:00Z,30.4367,-88.0117,2.949,9.03,1111122 
DISL,ioos:station:DISL:MBLA:1,2009-03-01T11:05:00Z,30.4367,-88.0117,2.556,9.01,1111122 
DISL,ioos:station:DISL:MBLA:1,2009-03-01T11:08:00Z,30.4367,-88.0117,2.265,9.02,1111122 
DISL,ioos:station:DISL:MBLA:1,2009-03-01T11:10:00Z,30.4367,-88.0117,1.725,9.02,1111122 
DISL,ioos:station:DISL:MBLA:1,2009-03-01T11:13:00Z,30.4367,-88.0117,1.132,9.02,1111122 
DISL,ioos:station:DISL:MBLA:1,2009-03-01T11:16:00Z,30.4367,-88.0117,0.954,9.03,1111122 
DISL,ioos:station:DISL:MBLA:1,2009-03-01T12:03:00Z,30.4367,-88.0117,2.999,9.02,1111122 
DISL,ioos:station:DISL:MBLA:1,2009-03-01T12:05:00Z,30.4367,-88.0117,2.471,9.02,1111122 
DISL,ioos:station:DISL:MBLA:1,2009-03-01T12:08:00Z,30.4367,-88.0117,1.999,9.01,1111122 
DISL,ioos:station:DISL:MBLA:1,2009-03-01T12:10:00Z,30.4367,-88.0117,1.56,9.02,1111122 
DISL,ioos:station:DISL:MBLA:1,2009-03-01T12:13:00Z,30.4367,-88.0117,1.025,9.02,1111122 
DISL,ioos:station:DISL:MBLA:1,2009-03-01T12:15:00Z,30.4367,-88.0117,0.595,9.02,1111122 
DISL,ioos:station:DISL:MBLA:1,2009-03-01T13:02:00Z,30.4367,-88.0117,2.878,8.99,1111122 
DISL,ioos:station:DISL:MBLA:1,2009-03-01T13:05:00Z,30.4367,-88.0117,2.64,8.98,1111122 
DISL,ioos:station:DISL:MBLA:1,2009-03-01T13:08:00Z,30.4367,-88.0117,2.053,8.99,1111122 
DISL,ioos:station:DISL:MBLA:1,2009-03-01T13:10:00Z,30.4367,-88.0117,1.473,8.98,1111122 
DISL,ioos:station:DISL:MBLA:1,2009-03-01T13:13:00Z,30.4367,-88.0117,1.124,8.98,1111122 
DISL,ioos:station:DISL:MBLA:1,2009-03-01T13:15:00Z,30.4367,-88.0117,0.776,8.99,1111122 
DISL,ioos:station:DISL:MBLA:1,2009-03-01T14:03:00Z,30.4367,-88.0117,2.939,9.01,1111122 
DISL,ioos:station:DISL:MBLA:1,2009-03-01T14:05:00Z,30.4367,-88.0117,2.552,9.0,1111122 
DISL,ioos:station:DISL:MBLA:1,2009-03-01T14:08:00Z,30.4367,-88.0117,1.95,9.0,1111122 
DISL,ioos:station:DISL:MBLA:1,2009-03-01T14:11:00Z,30.4367,-88.0117,1.803,9.01,1111122 
DISL,ioos:station:DISL:MBLA:1,2009-03-01T14:14:00Z,30.4367,-88.0117,1.014,9.01,1111122 
DISL,ioos:station:DISL:MBLA:1,2009-03-01T14:16:00Z,30.4367,-88.0117,0.561,9.02,1111122 
DISL,ioos:station:DISL:MBLA:1,2009-03-01T15:03:00Z,30.4367,-88.0117,2.805,9.06,1111122 
DISL,ioos:station:DISL:MBLA:1,2009-03-01T15:05:00Z,30.4367,-88.0117,2.505,9.05,1111122 
DISL,ioos:station:DISL:MBLA:1,2009-03-01T15:07:00Z,30.4367,-88.0117,1.894,9.06,1111122 
DISL,ioos:station:DISL:MBLA:1,2009-03-01T15:10:00Z,30.4367,-88.0117,1.724,9.05,1111122 
DISL,ioos:station:DISL:MBLA:1,2009-03-01T15:12:00Z,30.4367,-88.0117,1.232,9.06,1111122 
DISL,ioos:station:DISL:MBLA:1,2009-03-01T15:15:00Z,30.4367,-88.0117,0.83,9.08,1111122 
DISL,ioos:station:DISL:MBLA:1,2009-03-01T16:03:00Z,30.4367,-88.0117,3.042,9.07,1111122 
DISL,ioos:station:DISL:MBLA:1,2009-03-01T16:05:00Z,30.4367,-88.0117,2.352,9.07,1111122 
DISL,ioos:station:DISL:MBLA:1,2009-03-01T16:08:00Z,30.4367,-88.0117,2.085,9.08,1111122 
DISL,ioos:station:DISL:MBLA:1,2009-03-01T16:11:00Z,30.4367,-88.0117,1.468,9.07,1111122 
DISL,ioos:station:DISL:MBLA:1,2009-03-01T16:13:00Z,30.4367,-88.0117,0.878,9.08,1111122 
DISL,ioos:station:DISL:MBLA:1,2009-03-01T16:16:00Z,30.4367,-88.0117,0.533,9.09,1111122 
DISL,ioos:station:DISL:MBLA:1,2009-03-01T17:02:00Z,30.4367,-88.0117,2.927,9.12,1111122 
DISL,ioos:station:DISL:MBLA:1,2009-03-01T17:05:00Z,30.4367,-88.0117,2.46,9.12,1111122 
DISL,ioos:station:DISL:MBLA:1,2009-03-01T17:07:00Z,30.4367,-88.0117,2.087,9.14,1111122 
DISL,ioos:station:DISL:MBLA:1,2009-03-01T17:10:00Z,30.4367,-88.0117,1.58,9.14,1111122 
DISL,ioos:station:DISL:MBLA:1,2009-03-01T17:12:00Z,30.4367,-88.0117,1.017,9.16,1111122 
DISL,ioos:station:DISL:MBLA:1,2009-03-01T17:15:00Z,30.4367,-88.0117,0.515,9.17,1111122 
DISL,ioos:station:DISL:MBLA:1,2009-03-01T18:03:00Z,30.4367,-88.0117,2.97,9.03,1111122 
DISL,ioos:station:DISL:MBLA:1,2009-03-01T18:05:00Z,30.4367,-88.0117,2.511,9.01,1111122 
DISL,ioos:station:DISL:MBLA:1,2009-03-01T18:07:00Z,30.4367,-88.0117,2.076,9.07,1111122 
DISL,ioos:station:DISL:MBLA:1,2009-03-01T18:10:00Z,30.4367,-88.0117,1.393,9.11,1111122 
DISL,ioos:station:DISL:MBLA:1,2009-03-01T18:13:00Z,30.4367,-88.0117,1.012,9.15,1111122 
DISL,ioos:station:DISL:MBLA:1,2009-03-01T18:16:00Z,30.4367,-88.0117,0.349,9.11,1111122 
DISL,ioos:station:DISL:MBLA:1,2009-03-01T19:03:00Z,30.4367,-88.0117,2.902,8.98,1111122 
DISL,ioos:station:DISL:MBLA:1,2009-03-01T19:05:00Z,30.4367,-88.0117,2.433,9.03,1111122 
DISL,ioos:station:DISL:MBLA:1,2009-03-01T19:07:00Z,30.4367,-88.0117,2.051,9.06,1111122 
DISL,ioos:station:DISL:MBLA:1,2009-03-01T19:10:00Z,30.4367,-88.0117,1.602,9.03,1111122 
DISL,ioos:station:DISL:MBLA:1,2009-03-01T19:13:00Z,30.4367,-88.0117,0.976,9.1,1111122 
DISL,ioos:station:DISL:MBLA:1,2009-03-01T19:15:00Z,30.4367,-88.0117,0.493,9.1,1111122 
DISL,ioos:station:DISL:MBLA:1,2009-03-01T20:03:00Z,30.4367,-88.0117,3.036,8.97,1111122 
DISL,ioos:station:DISL:MBLA:1,2009-03-01T20:05:00Z,30.4367,-88.0117,2.478,9.02,1111122 
DISL,ioos:station:DISL:MBLA:1,2009-03-01T20:08:00Z,30.4367,-88.0117,1.962,9.11,1111122 
DISL,ioos:station:DISL:MBLA:1,2009-03-01T20:10:00Z,30.4367,-88.0117,1.486,9.14,1111122 
DISL,ioos:station:DISL:MBLA:1,2009-03-01T20:13:00Z,30.4367,-88.0117,1.039,9.17,1111122 
DISL,ioos:station:DISL:MBLA:1,2009-03-01T20:15:00Z,30.4367,-88.0117,0.498,9.22,1111122 
DISL,ioos:station:DISL:MBLA:1,2009-03-01T21:02:00Z,30.4367,-88.0117,2.949,9.04,1111122 
DISL,ioos:station:DISL:MBLA:1,2009-03-01T21:05:00Z,30.4367,-88.0117,2.371,9.05,1111122 
DISL,ioos:station:DISL:MBLA:1,2009-03-01T21:08:00Z,30.4367,-88.0117,2.039,9.06,1111122 
DISL,ioos:station:DISL:MBLA:1,2009-03-01T21:10:00Z,30.4367,-88.0117,1.634,9.06,1111122 
DISL,ioos:station:DISL:MBLA:1,2009-03-01T21:13:00Z,30.4367,-88.0117,1.102,9.07,1111122 
DISL,ioos:station:DISL:MBLA:1,2009-03-01T21:16:00Z,30.4367,-88.0117,0.653,9.06,1111122 
DISL,ioos:station:DISL:MBLA:1,2009-03-01T22:03:00Z,30.4367,-88.0117,2.871,9.07,1111122 
DISL,ioos:station:DISL:MBLA:1,2009-03-01T22:05:00Z,30.4367,-88.0117,2.466,9.1,1111122 
DISL,ioos:station:DISL:MBLA:1,2009-03-01T22:07:00Z,30.4367,-88.0117,2.094,9.11,1111122 
DISL,ioos:station:DISL:MBLA:1,2009-03-01T22:10:00Z,30.4367,-88.0117,1.401,9.1,1111122 
DISL,ioos:station:DISL:MBLA:1,2009-03-01T22:13:00Z,30.4367,-88.0117,0.849,9.08,1111122 
DISL,ioos:station:DISL:MBLA:1,2009-03-01T22:15:00Z,30.4367,-88.0117,0.702,9.12,1111122 
DISL,ioos:station:DISL:MBLA:1,2009-03-01T23:02:00Z,30.4367,-88.0117,2.939,9.04,1111122 
DISL,ioos:station:DISL:MBLA:1,2009-03-01T23:05:00Z,30.4367,-88.0117,2.463,9.04,1111122 
DISL,ioos:station:DISL:MBLA:1,2009-03-01T23:08:00Z,30.4367,-88.0117,1.87,9.06,1111122 
DISL,ioos:station:DISL:MBLA:1,2009-03-01T23:10:00Z,30.4367,-88.0117,1.285,9.05,1111122 
DISL,ioos:station:DISL:MBLA:1,2009-03-01T23:13:00Z,30.4367,-88.0117,1.185,9.05,1111122 
DISL,ioos:station:DISL:MBLA:1,2009-03-01T23:15:00Z,30.4367,-88.0117,0.542,9.07,1111122 
DISL,ioos:station:DISL:MBLA:1,2009-03-02T00:03:00Z,30.4367,-88.0117,2.912,9.03,1111122 
DISL,ioos:station:DISL:MBLA:1,2009-03-02T00:05:00Z,30.4367,-88.0117,2.338,9.04,1111122 
DISL,ioos:station:DISL:MBLA:1,2009-03-02T00:07:00Z,30.4367,-88.0117,2.133,9.1,1111122 
DISL,ioos:station:DISL:MBLA:1,2009-03-02T00:10:00Z,30.4367,-88.0117,1.4,9.11,1111122 
DISL,ioos:station:DISL:MBLA:1,2009-03-02T00:12:00Z,30.4367,-88.0117,1.016,9.15,1111122 
DISL,ioos:station:DISL:MBLA:1,2009-03-02T00:15:00Z,30.4367,-88.0117,0.502,9.18,1111122 
DISL,ioos:station:DISL:MBLA:1,2009-03-02T01:03:00Z,30.4367,-88.0117,2.999,9.14,1111122 
DISL,ioos:station:DISL:MBLA:1,2009-03-02T01:05:00Z,30.4367,-88.0117,2.533,9.2,1111122 
DISL,ioos:station:DISL:MBLA:1,2009-03-02T01:08:00Z,30.4367,-88.0117,2.019,9.23,1111122 
DISL,ioos:station:DISL:MBLA:1,2009-03-02T01:10:00Z,30.4367,-88.0117,1.556,9.26,1111122 
DISL,ioos:station:DISL:MBLA:1,2009-03-02T01:13:00Z,30.4367,-88.0117,0.961,9.26,1111122 
DISL,ioos:station:DISL:MBLA:1,2009-03-02T01:15:00Z,30.4367,-88.0117,0.558,9.29,1111122 
DISL,ioos:station:DISL:MBLA:1,2009-03-02T02:02:00Z,30.4367,-88.0117,2.764,9.33,1111122 
DISL,ioos:station:DISL:MBLA:1,2009-03-02T02:05:00Z,30.4367,-88.0117,2.498,9.36,1111122 
DISL,ioos:station:DISL:MBLA:1,2009-03-02T02:08:00Z,30.4367,-88.0117,1.982,9.4,1111122 
DISL,ioos:station:DISL:MBLA:1,2009-03-02T02:11:00Z,30.4367,-88.0117,1.519,9.42,1111122 
DISL,ioos:station:DISL:MBLA:1,2009-03-02T02:13:00Z,30.4367,-88.0117,1.13,9.42,1111122 
DISL,ioos:station:DISL:MBLA:1,2009-03-02T02:16:00Z,30.4367,-88.0117,0.487,9.43,1111122 
DISL,ioos:station:DISL:MBLA:1,2009-03-02T03:03:00Z,30.4367,-88.0117,2.927,9.0,1111122 
DISL,ioos:station:DISL:MBLA:1,2009-03-02T03:05:00Z,30.4367,-88.0117,2.51,9.08,1111122 
DISL,ioos:station:DISL:MBLA:1,2009-03-02T03:08:00Z,30.4367,-88.0117,1.954,9.23,1111122 
DISL,ioos:station:DISL:MBLA:1,2009-03-02T03:10:00Z,30.4367,-88.0117,1.396,9.27,1111122 
DISL,ioos:station:DISL:MBLA:1,2009-03-02T03:13:00Z,30.4367,-88.0117,0.996,9.31,1111122 
DISL,ioos:station:DISL:MBLA:1,2009-03-02T03:15:00Z,30.4367,-88.0117,0.354,9.37,1111122 
DISL,ioos:station:DISL:MBLA:1,2009-03-02T04:03:00Z,30.4367,-88.0117,2.996,9.23,1111122 
DISL,ioos:station:DISL:MBLA:1,2009-03-02T04:05:00Z,30.4367,-88.0117,2.509,9.25,1111122 
DISL,ioos:station:DISL:MBLA:1,2009-03-02T04:08:00Z,30.4367,-88.0117,2.103,9.25,1111122 
DISL,ioos:station:DISL:MBLA:1,2009-03-02T04:10:00Z,30.4367,-88.0117,1.606,9.26,1111122 
DISL,ioos:station:DISL:MBLA:1,2009-03-02T04:13:00Z,30.4367,-88.0117,1.111,9.29,1111122 
DISL,ioos:station:DISL:MBLA:1,2009-03-02T04:15:00Z,30.4367,-88.0117,0.651,9.28,1111122 
DISL,ioos:station:DISL:MBLA:1,2009-03-02T05:03:00Z,30.4367,-88.0117,3.011,9.08,1111122 
DISL,ioos:station:DISL:MBLA:1,2009-03-02T05:05:00Z,30.4367,-88.0117,2.56,9.09,1111122 
DISL,ioos:station:DISL:MBLA:1,2009-03-02T05:08:00Z,30.4367,-88.0117,1.995,9.13,1111122 
DISL,ioos:station:DISL:MBLA:1,2009-03-02T05:10:00Z,30.4367,-88.0117,1.438,9.13,1111122 
DISL,ioos:station:DISL:MBLA:1,2009-03-02T05:13:00Z,30.4367,-88.0117,0.779,9.15,1111122 
DISL,ioos:station:DISL:MBLA:1,2009-03-02T05:15:00Z,30.4367,-88.0117,0.449,9.19,1111122 
DISL,ioos:station:DISL:MBLA:1,2009-03-02T06:03:00Z,30.4367,-88.0117,3.073,8.98,1111122 
DISL,ioos:station:DISL:MBLA:1,2009-03-02T06:05:00Z,30.4367,-88.0117,2.521,8.99,1111122 
DISL,ioos:station:DISL:MBLA:1,2009-03-02T06:08:00Z,30.4367,-88.0117,2.017,9.05,1111122 
DISL,ioos:station:DISL:MBLA:1,2009-03-02T06:10:00Z,30.4367,-88.0117,1.448,9.12,1111122 
DISL,ioos:station:DISL:MBLA:1,2009-03-02T06:13:00Z,30.4367,-88.0117,1.215,9.12,1111122 
DISL,ioos:station:DISL:MBLA:1,2009-03-02T06:16:00Z,30.4367,-88.0117,0.356,9.19,1111122 
DISL,ioos:station:DISL:MBLA:1,2009-03-02T07:03:00Z,30.4367,-88.0117,2.849,9.04,1111122 
DISL,ioos:station:DISL:MBLA:1,2009-03-02T07:06:00Z,30.4367,-88.0117,2.511,9.05,1111122 
DISL,ioos:station:DISL:MBLA:1,2009-03-02T07:08:00Z,30.4367,-88.0117,1.752,9.08,1111122 
DISL,ioos:station:DISL:MBLA:1,2009-03-02T07:11:00Z,30.4367,-88.0117,1.646,9.11,1111122 
DISL,ioos:station:DISL:MBLA:1,2009-03-02T07:13:00Z,30.4367,-88.0117,1.011,9.13,1111122 
DISL,ioos:station:DISL:MBLA:1,2009-03-02T07:16:00Z,30.4367,-88.0117,0.504,9.15,1111122 
DISL,ioos:station:DISL:MBLA:1,2009-03-02T08:03:00Z,30.4367,-88.0117,2.999,9.15,1111122 
DISL,ioos:station:DISL:MBLA:1,2009-03-02T08:05:00Z,30.4367,-88.0117,2.338,9.17,1111122 
DISL,ioos:station:DISL:MBLA:1,2009-03-02T08:08:00Z,30.4367,-88.0117,1.86,9.16,1111122 
DISL,ioos:station:DISL:MBLA:1,2009-03-02T08:10:00Z,30.4367,-88.0117,1.566,9.17,1111122 
DISL,ioos:station:DISL:MBLA:1,2009-03-02T08:13:00Z,30.4367,-88.0117,1.009,9.17,1111122 
DISL,ioos:station:DISL:MBLA:1,2009-03-02T08:15:00Z,30.4367,-88.0117,0.69,9.18,1111122 
DISL,ioos:station:DISL:MBLA:1,2009-03-02T09:03:00Z,30.4367,-88.0117,3.024,9.18,1111122 
DISL,ioos:station:DISL:MBLA:1,2009-03-02T09:05:00Z,30.4367,-88.0117,2.475,9.19,1111122 
DISL,ioos:station:DISL:MBLA:1,2009-03-02T09:08:00Z,30.4367,-88.0117,2.013,9.21,1111122 
DISL,ioos:station:DISL:MBLA:1,2009-03-02T09:10:00Z,30.4367,-88.0117,1.533,9.23,1111122 
DISL,ioos:station:DISL:MBLA:1,2009-03-02T09:13:00Z,30.4367,-88.0117,1.152,9.24,1111122 
DISL,ioos:station:DISL:MBLA:1,2009-03-02T09:16:00Z,30.4367,-88.0117,0.46,9.29,1111122 
DISL,ioos:station:DISL:MBLA:1,2009-03-02T10:03:00Z,30.4367,-88.0117,2.895,9.14,1111122 
DISL,ioos:station:DISL:MBLA:1,2009-03-02T10:05:00Z,30.4367,-88.0117,2.488,9.17,1111122 
DISL,ioos:station:DISL:MBLA:1,2009-03-02T10:07:00Z,30.4367,-88.0117,2.14,9.16,1111122 
DISL,ioos:station:DISL:MBLA:1,2009-03-02T10:10:00Z,30.4367,-88.0117,1.44,9.2,1111122 
DISL,ioos:station:DISL:MBLA:1,2009-03-02T10:12:00Z,30.4367,-88.0117,1.048,9.23,1111122 
DISL,ioos:station:DISL:MBLA:1,2009-03-02T10:15:00Z,30.4367,-88.0117,0.559,9.25,1111122 
DISL,ioos:station:DISL:MBLA:1,2009-03-02T11:03:00Z,30.4367,-88.0117,3.058,9.07,1111122 
DISL,ioos:station:DISL:MBLA:1,2009-03-02T11:05:00Z,30.4367,-88.0117,2.544,9.11,1111122 
DISL,ioos:station:DISL:MBLA:1,2009-03-02T11:08:00Z,30.4367,-88.0117,1.911,9.2,1111122 
DISL,ioos:station:DISL:MBLA:1,2009-03-02T11:11:00Z,30.4367,-88.0117,1.593,9.21,1111122 
DISL,ioos:station:DISL:MBLA:1,2009-03-02T11:13:00Z,30.4367,-88.0117,1.034,9.21,1111122 
DISL,ioos:station:DISL:MBLA:1,2009-03-02T11:16:00Z,30.4367,-88.0117,0.477,9.23,1111122 
DISL,ioos:station:DISL:MBLA:1,2009-03-02T12:03:00Z,30.4367,-88.0117,2.99,9.09,1111122 
DISL,ioos:station:DISL:MBLA:1,2009-03-02T12:05:00Z,30.4367,-88.0117,2.597,9.14,1111122 
DISL,ioos:station:DISL:MBLA:1,2009-03-02T12:08:00Z,30.4367,-88.0117,2.129,9.17,1111122 
DISL,ioos:station:DISL:MBLA:1,2009-03-02T12:10:00Z,30.4367,-88.0117,1.597,9.24,1111122 
DISL,ioos:station:DISL:MBLA:1,2009-03-02T12:13:00Z,30.4367,-88.0117,1.188,9.24,1111122 
DISL,ioos:station:DISL:MBLA:1,2009-03-02T12:16:00Z,30.4367,-88.0117,0.324,9.28,1111122 
DISL,ioos:station:DISL:MBLA:1,2009-03-02T13:02:00Z,30.4367,-88.0117,2.946,9.06,1111122 
DISL,ioos:station:DISL:MBLA:1,2009-03-02T13:05:00Z,30.4367,-88.0117,2.457,9.16,1111122 
DISL,ioos:station:DISL:MBLA:1,2009-03-02T13:07:00Z,30.4367,-88.0117,2.086,9.26,1111122 
DISL,ioos:station:DISL:MBLA:1,2009-03-02T13:10:00Z,30.4367,-88.0117,1.29,9.28,1111122 
DISL,ioos:station:DISL:MBLA:1,2009-03-02T13:12:00Z,30.4367,-88.0117,1.192,9.29,1111122 
DISL,ioos:station:DISL:MBLA:1,2009-03-02T13:15:00Z,30.4367,-88.0117,0.195,9.32,1111122 
DISL,ioos:station:DISL:MBLA:1,2009-03-02T14:02:00Z,30.4367,-88.0117,2.95,9.2,1111122 
DISL,ioos:station:DISL:MBLA:1,2009-03-02T14:05:00Z,30.4367,-88.0117,2.652,9.19,1111122 
DISL,ioos:station:DISL:MBLA:1,2009-03-02T14:07:00Z,30.4367,-88.0117,1.947,9.21,1111122 
DISL,ioos:station:DISL:MBLA:1,2009-03-02T14:10:00Z,30.4367,-88.0117,1.409,9.35,1111122 
DISL,ioos:station:DISL:MBLA:1,2009-03-02T14:12:00Z,30.4367,-88.0117,0.989,9.39,1111122 
DISL,ioos:station:DISL:MBLA:1,2009-03-02T14:15:00Z,30.4367,-88.0117,0.54,9.4,1111122 
DISL,ioos:station:DISL:MBLA:1,2009-03-02T15:03:00Z,30.4367,-88.0117,2.999,9.39,1111122 
DISL,ioos:station:DISL:MBLA:1,2009-03-02T15:05:00Z,30.4367,-88.0117,2.505,9.41,1111122 
DISL,ioos:station:DISL:MBLA:1,2009-03-02T15:07:00Z,30.4367,-88.0117,2.045,9.42,1111122 
DISL,ioos:station:DISL:MBLA:1,2009-03-02T15:10:00Z,30.4367,-88.0117,1.422,9.39,1111122 
DISL,ioos:station:DISL:MBLA:1,2009-03-02T15:13:00Z,30.4367,-88.0117,0.95,9.4,1111122 
DISL,ioos:station:DISL:MBLA:1,2009-03-02T15:15:00Z,30.4367,-88.0117,0.426,9.4,1111122 
DISL,ioos:station:DISL:MBLA:1,2009-03-02T16:03:00Z,30.4367,-88.0117,3.049,9.27,1111122 
DISL,ioos:station:DISL:MBLA:1,2009-03-02T16:05:00Z,30.4367,-88.0117,2.497,9.47,1111122 
DISL,ioos:station:DISL:MBLA:1,2009-03-02T16:08:00Z,30.4367,-88.0117,1.997,9.3,1111122 
DISL,ioos:station:DISL:MBLA:1,2009-03-02T16:10:00Z,30.4367,-88.0117,1.504,9.35,1111122 
DISL,ioos:station:DISL:MBLA:1,2009-03-02T16:13:00Z,30.4367,-88.0117,0.957,9.5,1111122 
DISL,ioos:station:DISL:MBLA:1,2009-03-02T16:15:00Z,30.4367,-88.0117,0.592,9.62,1111122 
DISL,ioos:station:DISL:MBLA:1,2009-03-02T17:02:00Z,30.4367,-88.0117,2.918,9.07,1111122 
DISL,ioos:station:DISL:MBLA:1,2009-03-02T17:05:00Z,30.4367,-88.0117,2.495,9.14,1111122 
DISL,ioos:station:DISL:MBLA:1,2009-03-02T17:07:00Z,30.4367,-88.0117,2.0,9.33,1111122 
DISL,ioos:station:DISL:MBLA:1,2009-03-02T17:10:00Z,30.4367,-88.0117,1.498,9.25,1111122 
DISL,ioos:station:DISL:MBLA:1,2009-03-02T17:13:00Z,30.4367,-88.0117,1.081,9.29,1111122 
DISL,ioos:station:DISL:MBLA:1,2009-03-02T17:15:00Z,30.4367,-88.0117,0.43,9.56,1111122 
DISL,ioos:station:DISL:MBLA:1,2009-03-02T18:02:00Z,30.4367,-88.0117,2.933,8.89,1111122 
DISL,ioos:station:DISL:MBLA:1,2009-03-02T18:05:00Z,30.4367,-88.0117,2.506,8.92,1111122 
DISL,ioos:station:DISL:MBLA:1,2009-03-02T18:07:00Z,30.4367,-88.0117,2.008,9.03,1111122 
DISL,ioos:station:DISL:MBLA:1,2009-03-02T18:10:00Z,30.4367,-88.0117,1.505,9.27,1111122 
DISL,ioos:station:DISL:MBLA:1,2009-03-02T18:12:00Z,30.4367,-88.0117,1.016,9.44,1111122 
DISL,ioos:station:DISL:MBLA:1,2009-03-02T18:15:00Z,30.4367,-88.0117,0.458,9.69,1111122 
DISL,ioos:station:DISL:MBLA:1,2009-03-02T19:02:00Z,30.4367,-88.0117,2.938,8.91,1111122 
DISL,ioos:station:DISL:MBLA:1,2009-03-02T19:05:00Z,30.4367,-88.0117,2.504,8.92,1111122 
DISL,ioos:station:DISL:MBLA:1,2009-03-02T19:07:00Z,30.4367,-88.0117,1.999,9.11,1111122 
DISL,ioos:station:DISL:MBLA:1,2009-03-02T19:10:00Z,30.4367,-88.0117,1.497,9.33,1111122 
DISL,ioos:station:DISL:MBLA:1,2009-03-02T19:12:00Z,30.4367,-88.0117,1.058,9.54,1111122 
DISL,ioos:station:DISL:MBLA:1,2009-03-02T19:15:00Z,30.4367,-88.0117,0.592,9.75,1111122 
DISL,ioos:station:DISL:MBLA:1,2009-03-02T20:02:00Z,30.4367,-88.0117,2.945,8.93,1111122 
DISL,ioos:station:DISL:MBLA:1,2009-03-02T20:05:00Z,30.4367,-88.0117,2.502,9.04,1111122 
DISL,ioos:station:DISL:MBLA:1,2009-03-02T20:07:00Z,30.4367,-88.0117,1.936,9.29,1111122 
DISL,ioos:station:DISL:MBLA:1,2009-03-02T20:10:00Z,30.4367,-88.0117,1.431,9.41,1111122 
DISL,ioos:station:DISL:MBLA:1,2009-03-02T20:12:00Z,30.4367,-88.0117,0.993,9.47,1111122 
DISL,ioos:station:DISL:MBLA:1,2009-03-02T20:15:00Z,30.4367,-88.0117,0.612,9.53,1111122 
DISL,ioos:station:DISL:MBLA:1,2009-03-02T21:02:00Z,30.4367,-88.0117,2.925,8.92,1111122 
DISL,ioos:station:DISL:MBLA:1,2009-03-02T21:05:00Z,30.4367,-88.0117,2.488,9.04,1111122 